sat.trackr.live / text

‹ back to catalog

CONNECTA IOT-13

NORAD 67400 · 2026-004AP

PAYLOAD ACTIVE UNKNOWN

§ Identity

Operator
Country
TURK
Launch date
2026-01-11
Launch site
AFWTR
Launch vehicle
Mass (kg)
RCS (m²)

External: N2YO · Heavens-Above · Gunter

§ Orbital elements

Epoch: 2026-05-24T22:23:16.644192Z

Period
94.88 min
Inclination
97.4562°
Eccentricity
0.0010609
Mean motion
15.17768439 rev/d
Perigee alt
505.3 km
Apogee alt
519.9 km
Semi-major
6,890.7 km
B*
6.3995e-4
RAAN
144.2765°
Arg perigee
74.8178°
Mean anomaly
285.4228°
Rev number
2,022

§ Raw data

CONNECTA IOT-131 67400U 26004AP  26144.93283153  .00012889  00000+0  63995-3 0  99922 67400  97.4562 144.2765 0010609  74.8178 285.4228 15.17768439 20220

JSON: /api/v1/satellites/67400 · /tle

For live sub-satellite position, see the globe view (requires WebGL).

§ Visibility from observer

Set your observer location to see the next 7 days of passes ≥ 10°. The values pass through the URL so the page stays shareable.

No JS? Fill the form by hand. The geolocation button needs JavaScript.